Regional Weather Roundup
Issued by NWS

Home | Current Version | Previous Version | Text Only | Print | Product List | Glossary On
Versions: 1 2 3 4 5 6 7 8 9 10 11 12 13 14 15 16 17 18 19 20 21 22 23 24 25 26 27 28 29 30 31 32 33 34 35 36 37 38 39 40 41 42 43 44 45 46 47 48 49 50
000
ASUS43 KTOP 130308
RWRKS

WEATHER ROUNDUP FOR KANSAS
NATIONAL WEATHER SERVICE GOODLAND KS
900 PM CST FRI FEB 12 2016

NOTE:  "FAIR" INDICATES FEW OR NO CLOUDS BELOW 12,000 FEET WITH NO
SIGNIFICANT WEATHER AND/OR OBSTRUCTIONS TO VISIBILITY.

KSZ001>006-013>018-027>032-041>047-130400-
NORTHWEST KANSAS

CITY           SKY/WX    TMP DP  RH WIND       PRES   REMARKS
GOODLAND       CLOUDY    29  28  96 SE14      30.38R WCI  18
HAYS           CLOUDY    30  18  59 E17       30.49R WCI  18
HILL CITY      CLOUDY    30  26  85 E14       30.49R WCI  19
RUSSELL        CLOUDY    29  23  78 NE13      30.50R WCI  19
$$

KSZ061>065-074>080-084>089-130400-
SOUTHWEST KANSAS

CITY           SKY/WX    TMP DP  RH WIND       PRES   REMARKS
DODGE CITY     CLOUDY    29  24  82 E12       30.42S WCI  19
ELKHART          N/A     39  24  55 SE13        N/A  WCI  31
GARDEN CITY    CLOUDY    30  25  81 E12       30.38S WCI  20
GREAT BEND     CLOUDY    32  19  59 E10       30.50R WCI  24
LIBERAL        CLEAR     37  25  60 E16       30.37R WCI  28
PRATT          CLOUDY    31  23  72 NE8       30.47S
$$

KSZ066>073-081>083-090>101-130400-
SOUTHEAST KANSAS

CITY           SKY/WX    TMP DP  RH WIND       PRES   REMARKS
CHANUTE        CLOUDY    33  16  49 NE12      30.51R WCI  24
COFFEYVILLE    CLOUDY    36  18  48 NE14      30.51R WCI  27
HUTCHINSON     CLOUDY    32  22  66 NE8       30.51R
MEDICINE LODGE   N/A     35  26  69 NE8       30.48R
NEWTON         CLOUDY    30  18  59 NE10      30.50F WCI  21
PARSONS        CLOUDY    35  18  49 NE9       30.50S
WICHITA INTL   CLOUDY    35  22  58 NE16      30.48S WCI  25
WICHITA JABRA  CLOUDY    32  22  66 NE12      30.48F WCI  23
WICHITA MCCONL CLOUDY    34  23  63 NE12      30.48F WCI  25
WINFIELD       CLOUDY    37  23  56 NE15      30.47F WCI  28
$$

KSZ007>012-019>026-033>040-048>060-102>105-130400-
NORTHEAST KANSAS

CITY           SKY/WX    TMP DP  RH WIND       PRES   REMARKS
CONCORDIA      CLOUDY    26  15  63 NE10      30.56R WCI  16
EMPORIA        CLOUDY    30  15  53 NE13      30.52R WCI  20
LAWRENCE       CLOUDY    25   9  50 N9        30.58R
MANHATTAN      CLOUDY    27  13  55 NE14      30.58R WCI  16
MARYSVILLE     CLOUDY    23  14  68 N10       30.58R WCI  12
OLATHE IND     CLEAR     23   8  52 N12       30.56R WCI  12
OLATHE EXE     CLEAR     24   5  44 N9        30.54R
SALINA         CLOUDY    32  18  56 NE9       30.55R
TOPEKA BILLARD CLOUDY    25   6  44 NE12      30.59R WCI  14
TOPEKA FORBES  CLOUDY    26   7  44 NE9       30.56R
$$



USA.gov is the U.S. government's official web portal to all federal, state and local government web resources and services.